{"data":{"norad_id":66072,"intl_designator":"2025-235Q","name":"STARLINK-35299","alt_names":[],"object_type":"PAYLOAD","status":"ACTIVE","operator":null,"country":"US","launch_date":"2025-10-19","launch_site_code":"AFETR","launch_vehicle":null,"mission":null,"orbit_class":"UNKNOWN","rcs_meters":null,"size_class":null,"mass_kg":null,"dimensions":null,"purposes":["comms"],"wikipedia_slug":null,"has_3d_model":false,"image_url":null,"decayed_at":null,"tle_current":{"epoch":"2026-05-25T00:06:04.544064Z","epoch_age_seconds":84752,"freshness":"FRESH","line1":"1 66072U 25235Q   26145.00421926  .00015566  00000+0  53627-3 0  9998","line2":"2 66072  53.1577 250.9341 0000477 230.4400 129.6559 15.30217359 34602","mean_motion":15.30217359,"eccentricity":4.77e-5,"inclination_deg":53.1577,"raan_deg":250.9341,"arg_perigee_deg":230.44,"mean_anomaly_deg":129.6559,"bstar":0.00053627,"rev_number":3460,"period_min":94.104278162224,"perigee_km":474.83633664288,"apogee_km":475.49014148569,"semimajor_km":6853.3002390643,"source":"CELESTRAK","updated_at":"2026-05-25T13:38:21.023098Z"}}}